Change the Weather History Date:

Monday, October 15, 2012

  Actual Average Record
Temperature  
Mean Temperature 59 °F 49 °F  
Max Temperature 72 °F 64 °F 78 °F (1991)
Min Temperature 45 °F 34 °F 23 °F (1992)
Degree Days  
Heating Degree Days 6 16  
Month to date heating degree days 163 192  
Since 1 July heating degree days 245 400  
Cooling Degree Days 0 0  
Month to date cooling degree days 0 0  
Year to date cooling degree days 667 472  
Growing Degree Days 8 (Base 50)    
Moisture  
Dew Point 51 °F    
Average Humidity 66    
Maximum Humidity 93    
Minimum Humidity 38    
Precipitation  
Precipitation 0.21 in 0.02 in 0.21 in (2012)
Month to date precipitation 0.25 0.20  
Year to date precipitation 5.77 5.33  
Snow  
Snow 0.00 in 0.00 in 0.00 in (2002)
Month to date snowfall 0.0 0.0  
Year to date snowfall 21.5 8.6  
Since 1 July snowfall 0.0 0.0  
Snow Depth 0.00 in    
Sea Level Pressure  
Sea Level Pressure 29.79 in    
Wind  
Wind Speed 5 mph (SSW)    
Max Wind Speed 21 mph    
Max Gust Speed 29 mph    
Visibility 10 miles    
Events Rain    
T = Trace of Precipitation, MM = Missing Value Source: NWS Daily Summary

Daily Weather History Graph

Daily Weather History Graph

Search for Another Location

Airport or City:

Trip Planner

Search our weather history database for the weather conditions in past years. The results will help you decide how hot, cold, wet, or windy it might be!

Date:

Astronomy

Oct. 15, 2012 Rise Set
Actual Time 7:20 AM PDT 6:14 PM PDT
Civil Twilight 6:50 AM PDT 6:44 PM PDT
Nautical Twilight 6:15 AM PDT 7:19 PM PDT
Astronomical Twilight 5:40 AM PDT 7:54 PM PDT
Moon 7:41 AM PDT (10/15) 6:12 PM PDT (10/15)
Length of Visible Light 11h 54m
Length of Day
10h 53m
New Moon, 0% of the Moon is Illuminated
Oct 15
New Moon
Oct 21
First Quarter
Oct 29
Full
Nov 6
Last Quarter
Nov 13
New

Hourly Weather History & Observations

Time (PDT) Temp. Dew Point Humidity Pressure Visibility Wind Dir Wind Speed Gust Speed Precip Events Conditions
12:53 AM 61.0 °F 50.0 °F 67% 29.88 in 10.0 mi Variable 4.6 mph - 0.00 in   Overcast
1:53 AM 62.1 °F 50.0 °F 65% 29.87 in 10.0 mi Calm Calm - 0.00 in   Overcast
2:53 AM 57.0 °F 51.1 °F 81% 29.88 in 10.0 mi SSW 4.6 mph - N/A   Overcast
3:53 AM 53.1 °F 48.9 °F 86% 29.86 in 10.0 mi Calm Calm - N/A   Clear
4:53 AM 50.0 °F 46.0 °F 86% 29.86 in 10.0 mi West 6.9 mph - N/A   Clear
5:53 AM 46.9 °F 44.1 °F 90% 29.88 in 10.0 mi Calm Calm - N/A   Clear
6:53 AM 46.9 °F 45.0 °F 93% 29.90 in 10.0 mi WSW 4.6 mph - N/A   Scattered Clouds
7:53 AM 48.0 °F 44.1 °F 86% 29.92 in 10.0 mi West 6.9 mph - N/A   Scattered Clouds
8:53 AM 55.0 °F 48.0 °F 77% 29.93 in 10.0 mi WNW 3.5 mph - N/A   Partly Cloudy
9:53 AM 61.0 °F 50.0 °F 67% 29.92 in 10.0 mi Calm Calm - N/A   Partly Cloudy
10:53 AM 63.0 °F 51.1 °F 65% 29.90 in 10.0 mi East 3.5 mph - N/A   Partly Cloudy
11:53 AM 68.0 °F 52.0 °F 56% 29.88 in 10.0 mi NNE 5.8 mph - N/A   Partly Cloudy
12:53 PM 71.1 °F 45.0 °F 39% 29.84 in 10.0 mi SW 9.2 mph - N/A   Partly Cloudy
1:53 PM 69.1 °F 48.9 °F 49% 29.82 in 10.0 mi SSW 11.5 mph - N/A   Partly Cloudy
2:53 PM 66.9 °F 50.0 °F 54% 29.78 in 10.0 mi South 16.1 mph 24.2 mph N/A   Mostly Cloudy
3:53 PM 63.0 °F 55.0 °F 75% 29.77 in 10.0 mi South 9.2 mph - 0.01 in Rain Light Rain
4:53 PM 63.0 °F 55.0 °F 75% 29.76 in 6.0 mi South 8.1 mph - 0.02 in Rain Rain
5:53 PM 60.1 °F 57.0 °F 90% 29.72 in 10.0 mi SE 4.6 mph - 0.09 in Rain Light Rain
6:53 PM 60.1 °F 57.0 °F 90% 29.68 in 10.0 mi NE 3.5 mph - 0.05 in Rain Light Rain
7:53 PM 59.0 °F 55.9 °F 90% 29.65 in 10.0 mi Calm Calm - 0.01 in Rain Light Rain
8:53 PM 60.1 °F 55.9 °F 86% 29.62 in 10.0 mi ESE 4.6 mph - 0.00 in   Clear
9:53 PM 57.9 °F 55.0 °F 90% 29.60 in 9.0 mi SSW 4.6 mph - 0.01 in Rain Light Rain
10:53 PM 57.0 °F 54.0 °F 89% 29.57 in 10.0 mi Calm Calm - 0.02 in   Mostly Cloudy
11:53 PM 57.9 °F 54.0 °F 87% 29.57 in 10.0 mi North - - N/A   Mostly Cloudy